RYR6QF LMML-LYNI

Flight info

Callsign RYR6QF
Flight time N/A
Altitude 36000
Route VESOD DCT ADREN DCT GOKEL F350 DCT BONZI DCT OLOTA DCT VAGEN
Aircraft B738/M-SDE2E3FGHIRWXY/LB1

Departure

Time 2026-04-30 14:04
Airport Malta International Airport (LMML)

Arrival

Time N/A
Airport Niš Constantine the Great Airport (LYNI)
Time Latitude Longitude Altitude Speed Heading
2026-04-30 13:48 35.84905 14.49396 245 ft 0 kts 360°
2026-04-30 13:58 35.84903 14.49396 245 ft 2 kts 360°
2026-04-30 13:59 35.84888 14.49396 245 ft 2 kts 360°
2026-04-30 13:59 35.84873 14.49396 245 ft 2 kts 360°
2026-04-30 13:59 35.84858 14.49396 244 ft 2 kts 360°
2026-04-30 13:59 35.84848 14.49396 244 ft 1 kts 360°
2026-04-30 14:00 35.84834 14.49398 244 ft 2 kts 332°
2026-04-30 14:00 35.84821 14.49411 244 ft 0 kts 313°
2026-04-30 14:02 35.84822 14.49410 244 ft 1 kts 313°
2026-04-30 14:02 35.84853 14.49370 245 ft 12 kts 313°
2026-04-30 14:02 35.84937 14.49247 245 ft 24 kts 286°
2026-04-30 14:02 35.84929 14.49071 249 ft 20 kts 306°
2026-04-30 14:03 35.84998 14.48891 253 ft 27 kts 287°
2026-04-30 14:03 35.84999 14.48686 258 ft 23 kts 162°
2026-04-30 14:03 35.84857 14.48861 254 ft 52 kts 134°
2026-04-30 14:03 35.84421 14.49397 247 ft 121 kts 135°
2026-04-30 14:04 35.83691 14.50304 347 ft 166 kts 133°
2026-04-30 14:04 35.82869 14.51237 1053 ft 167 kts 142°
2026-04-30 14:04 35.81711 14.51622 1534 ft 186 kts 186°
2026-04-30 14:04 35.80464 14.50967 2062 ft 204 kts 212°
2026-04-30 14:05 35.79142 14.50192 2606 ft 221 kts 194°
2026-04-30 14:05 35.77582 14.50170 3186 ft 238 kts 164°
2026-04-30 14:05 35.76158 14.51269 3783 ft 255 kts 130°
2026-04-30 14:05 35.75309 14.53259 4407 ft 271 kts 101°
2026-04-30 14:06 35.75381 14.55567 5131 ft 277 kts 69°
2026-04-30 14:06 35.77473 14.59535 6878 ft 282 kts 49°
2026-04-30 14:07 35.79836 14.63447 8576 ft 291 kts 51°
2026-04-30 14:07 35.80996 14.65508 9400 ft 296 kts 52°
2026-04-30 14:07 35.82150 14.67599 10200 ft 301 kts 52°
2026-04-30 14:08 35.84618 14.72072 11181 ft 332 kts 52°
2026-04-30 14:08 35.85947 14.74475 11619 ft 349 kts 52°
2026-04-30 14:08 35.88797 14.79636 12452 ft 382 kts 52°
2026-04-30 14:09 35.90322 14.82403 12829 ft 398 kts 52°
2026-04-30 14:09 35.91922 14.85307 13178 ft 413 kts 52°
2026-04-30 14:09 35.95223 14.91314 14201 ft 431 kts 52°
2026-04-30 14:10 35.96909 14.94393 14902 ft 435 kts 52°
2026-04-30 14:10 35.98607 14.97497 15536 ft 439 kts 52°
2026-04-30 14:10 36.00312 15.00615 16167 ft 443 kts 52°
2026-04-30 14:10 36.02042 15.03780 16779 ft 448 kts 52°
2026-04-30 14:11 36.03788 15.06975 17391 ft 452 kts 52°
2026-04-30 14:11 36.05565 15.10230 18002 ft 455 kts 52°
2026-04-30 14:11 36.07335 15.13474 18569 ft 460 kts 51°
2026-04-30 14:11 36.09112 15.16733 19153 ft 464 kts 52°
2026-04-30 14:12 36.10940 15.20089 19758 ft 467 kts 51°
2026-04-30 14:12 36.12750 15.23412 20280 ft 473 kts 51°
2026-04-30 14:12 36.14587 15.26790 20859 ft 476 kts 51°
2026-04-30 14:12 36.16450 15.30219 21455 ft 479 kts 51°
2026-04-30 14:13 36.18301 15.33630 21960 ft 484 kts 51°
2026-04-30 14:13 36.20198 15.37130 22526 ft 487 kts 51°
2026-04-30 14:13 36.22082 15.40609 23013 ft 491 kts 51°
2026-04-30 14:13 36.23965 15.44090 23507 ft 495 kts 51°
2026-04-30 14:14 36.25883 15.47643 24026 ft 498 kts 51°
2026-04-30 14:14 36.27821 15.51233 24549 ft 501 kts 51°
2026-04-30 14:14 36.29756 15.54824 24979 ft 506 kts 51°
2026-04-30 14:14 36.31737 15.58502 25441 ft 509 kts 51°
2026-04-30 14:15 36.33669 15.62097 26197 ft 506 kts 51°
2026-04-30 14:15 36.35624 15.65747 26995 ft 501 kts 51°
2026-04-30 14:15 36.37540 15.69325 27595 ft 500 kts 51°
2026-04-30 14:15 36.39449 15.72892 28132 ft 500 kts 51°
2026-04-30 14:16 36.41375 15.76488 28600 ft 501 kts 51°
2026-04-30 14:16 36.43317 15.80117 29098 ft 502 kts 51°
2026-04-30 14:16 36.45227 15.83690 29619 ft 501 kts 51°
2026-04-30 14:16 36.47158 15.87252 30133 ft 499 kts 49°
2026-04-30 14:17 36.49217 15.90667 30620 ft 494 kts 44°
2026-04-30 14:17 36.51512 15.93830 31168 ft 486 kts 38°
2026-04-30 14:17 36.53991 15.96625 31724 ft 478 kts 32°
2026-04-30 14:17 36.56620 15.99035 32187 ft 471 kts 26°
2026-04-30 14:18 36.59428 16.01131 32596 ft 466 kts 22°
2026-04-30 14:18 36.62303 16.03026 32976 ft 465 kts 20°
2026-04-30 14:18 36.68079 16.06742 33743 ft 466 kts 21°
2026-04-30 14:19 36.73765 16.10639 34588 ft 465 kts 22°
2026-04-30 14:19 36.76572 16.12652 34965 ft 465 kts 23°
2026-04-30 14:19 36.79390 16.14714 35319 ft 465 kts 23°
2026-04-30 14:20 36.82155 16.16765 35742 ft 464 kts 24°
2026-04-30 14:20 36.84939 16.18848 36009 ft 464 kts 24°
2026-04-30 14:20 36.90519 16.23041 36020 ft 469 kts 24°
2026-04-30 14:21 36.96085 16.27247 36028 ft 467 kts 24°
2026-04-30 14:22 37.04446 16.33587 36028 ft 467 kts 24°
2026-04-30 14:22 37.12786 16.39921 36030 ft 468 kts 24°
2026-04-30 14:23 37.23899 16.48381 36035 ft 466 kts 24°
2026-04-30 14:24 37.32243 16.54753 35827 ft 465 kts 24°
2026-04-30 14:25 37.37800 16.59005 36030 ft 470 kts 24°
2026-04-30 14:25 37.43382 16.63285 36038 ft 469 kts 24°
2026-04-30 14:26 37.51744 16.69717 36040 ft 470 kts 25°
2026-04-30 14:27 37.60076 16.76135 36045 ft 469 kts 25°
2026-04-30 14:27 37.65647 16.80437 36045 ft 468 kts 25°
2026-04-30 14:28 37.73950 16.86862 36047 ft 466 kts 25°
2026-04-30 14:28 37.79488 16.91156 36048 ft 467 kts 25°
2026-04-30 14:29 37.90533 16.99743 36050 ft 467 kts 25°
2026-04-30 14:31 38.04388 17.10564 36049 ft 466 kts 26°
2026-04-30 14:31 38.12652 17.17040 36053 ft 467 kts 26°
2026-04-30 14:32 38.20923 17.23537 36053 ft 468 kts 26°
2026-04-30 14:33 38.26462 17.27899 36050 ft 467 kts 25°
2026-04-30 14:33 38.34724 17.34421 36043 ft 466 kts 26°
2026-04-30 14:34 38.40234 17.38779 36050 ft 467 kts 26°
2026-04-30 14:34 38.45754 17.43152 36053 ft 467 kts 26°
2026-04-30 14:35 38.54011 17.49709 36057 ft 469 kts 26°
2026-04-30 14:36 38.59545 17.54116 36057 ft 467 kts 26°
2026-04-30 14:36 38.65064 17.58519 36059 ft 466 kts 26°
2026-04-30 14:37 38.70586 17.62930 36052 ft 467 kts 26°
2026-04-30 14:37 38.76080 17.67329 36061 ft 467 kts 26°
2026-04-30 14:38 38.81590 17.71747 36061 ft 468 kts 27°
2026-04-30 14:38 38.87146 17.76082 36057 ft 466 kts 24°
2026-04-30 14:39 38.92828 17.80067 36061 ft 464 kts 22°
2026-04-30 14:39 38.98546 17.83972 36048 ft 464 kts 22°
2026-04-30 14:40 39.07091 17.89873 36055 ft 465 kts 23°
2026-04-30 14:40 39.12734 17.93818 36056 ft 466 kts 23°
2026-04-30 14:41 39.18457 17.97843 36058 ft 466 kts 23°
2026-04-30 14:41 39.24174 18.01878 36059 ft 466 kts 23°
2026-04-30 14:42 39.29869 18.05906 36065 ft 467 kts 23°
2026-04-30 14:42 39.35559 18.09940 36060 ft 467 kts 23°
2026-04-30 14:43 39.41264 18.13992 36064 ft 468 kts 23°
2026-04-30 14:43 39.46923 18.18018 36057 ft 468 kts 23°
2026-04-30 14:44 39.52636 18.22091 36063 ft 468 kts 23°
2026-04-30 14:44 39.58349 18.26171 36053 ft 468 kts 23°
2026-04-30 14:45 39.64055 18.30253 36061 ft 470 kts 23°
2026-04-30 14:45 39.69781 18.34357 36067 ft 470 kts 23°
2026-04-30 14:46 39.75521 18.38481 36058 ft 470 kts 23°
2026-04-30 14:46 39.81243 18.42601 36067 ft 470 kts 23°
2026-04-30 14:47 39.86950 18.46717 36062 ft 470 kts 23°
2026-04-30 14:47 39.92670 18.50848 36062 ft 470 kts 23°
2026-04-30 14:48 39.98390 18.54986 36060 ft 472 kts 23°
2026-04-30 14:48 40.04163 18.59172 36060 ft 472 kts 23°
2026-04-30 14:49 40.09927 18.63358 36058 ft 472 kts 23°
2026-04-30 14:49 40.15630 18.67509 36056 ft 474 kts 24°
2026-04-30 14:50 40.24281 18.73825 36054 ft 473 kts 23°
2026-04-30 14:51 40.32923 18.80151 36047 ft 474 kts 23°
2026-04-30 14:52 40.41553 18.86487 36039 ft 475 kts 23°
2026-04-30 14:52 40.50209 18.92862 36040 ft 476 kts 23°
2026-04-30 14:53 40.58714 18.99581 36036 ft 481 kts 31°
2026-04-30 14:54 40.63720 19.05604 35763 ft 494 kts 41°
2026-04-30 14:54 40.68267 19.12451 35312 ft 497 kts 45°
2026-04-30 14:55 40.72710 19.19508 35054 ft 498 kts 45°
2026-04-30 14:55 40.74923 19.23030 35047 ft 501 kts 45°
2026-04-30 14:56 40.83887 19.37151 35044 ft 501 kts 44°
2026-04-30 14:57 40.90648 19.47726 35047 ft 502 kts 44°
2026-04-30 14:58 40.99689 19.61885 35049 ft 506 kts 44°
2026-04-30 14:58 41.06485 19.72569 35060 ft 508 kts 45°
2026-04-30 15:00 41.17800 19.90451 35064 ft 507 kts 44°
2026-04-30 15:01 41.26881 20.04875 35081 ft 510 kts 44°
2026-04-30 15:01 41.33723 20.15788 35072 ft 511 kts 44°
2026-04-30 15:02 41.38252 20.23038 35081 ft 508 kts 44°
2026-04-30 15:03 41.49628 20.41306 35110 ft 515 kts 44°
2026-04-30 15:04 41.61037 20.59723 35111 ft 514 kts 44°
2026-04-30 15:06 41.72433 20.78197 35110 ft 516 kts 45°
2026-04-30 15:07 41.81515 20.93017 35122 ft 515 kts 44°
2026-04-30 15:08 41.90573 21.07859 35176 ft 516 kts 44°
2026-04-30 15:09 42.01908 21.26536 35195 ft 514 kts 44°
2026-04-30 15:09 42.06396 21.33976 34884 ft 508 kts 45°
2026-04-30 15:10 42.10839 21.41355 33509 ft 511 kts 44°
2026-04-30 15:11 42.19953 21.56441 29747 ft 526 kts 44°
2026-04-30 15:11 42.25090 21.63334 27845 ft 521 kts 34°
2026-04-30 15:12 42.33694 21.71865 24503 ft 505 kts 29°
2026-04-30 15:13 42.39482 21.77104 22933 ft 500 kts 29°
2026-04-30 15:14 42.50820 21.87487 19643 ft 483 kts 30°
2026-04-30 15:14 42.58744 21.94882 17252 ft 441 kts 30°
2026-04-30 15:16 42.70596 22.05809 13621 ft 392 kts 26°
2026-04-30 15:17 42.80622 22.09255 11316 ft 360 kts
2026-04-30 15:18 42.93049 22.11148 10507 ft 356 kts
2026-04-30 15:19 43.00399 22.12342 9404 ft 344 kts